FDB454 VOCI-OMDB

Flight info

Callsign FDB454
Flight time N/A
Altitude 34000
Route CIA Q12 NOBOD N563 LEGEN/N0463F360 N563 REXOD M762 VAXAS/N0416F240 M762 MIVEK P574 IMPED
Aircraft B38M/M-SDE1FGHILORVWXY/HB1

Departure

Time N/A
Airport Cochin International Airport (VOCI)

Arrival

Time 2026-04-23 13:56
Airport Dubai International Airport (OMDB)
Time Latitude Longitude Altitude Speed Heading
2026-04-23 11:39 17.00204 69.91946 33815 ft 462 kts 297°
2026-04-23 11:39 17.03241 69.86072 33814 ft 462 kts 297°
2026-04-23 11:40 17.06297 69.80157 33817 ft 462 kts 297°
2026-04-23 11:40 17.09350 69.74242 33818 ft 462 kts 298°
2026-04-23 11:41 17.12403 69.68323 33821 ft 462 kts 298°
2026-04-23 11:41 17.15452 69.62406 33821 ft 462 kts 298°
2026-04-23 11:42 17.18503 69.56482 33824 ft 463 kts 298°
2026-04-23 11:42 17.21568 69.50571 33822 ft 462 kts 298°
2026-04-23 11:43 17.24137 69.45616 33824 ft 462 kts 298°
2026-04-23 11:43 17.27178 69.39744 33818 ft 462 kts 298°
2026-04-23 11:44 17.30239 69.33829 33820 ft 462 kts 298°
2026-04-23 11:44 17.33296 69.27917 33822 ft 462 kts 298°
2026-04-23 11:45 17.36353 69.22000 33821 ft 462 kts 298°
2026-04-23 11:45 17.39409 69.16077 33824 ft 462 kts 298°
2026-04-23 11:46 17.42462 69.10157 33827 ft 462 kts 298°
2026-04-23 11:46 17.45514 69.04233 33826 ft 462 kts 298°
2026-04-23 11:47 17.48565 68.98306 33827 ft 462 kts 298°
2026-04-23 11:47 17.51610 68.92385 33826 ft 462 kts 298°
2026-04-23 11:48 17.54657 68.86456 33830 ft 462 kts 298°
2026-04-23 11:48 17.57699 68.80528 33829 ft 462 kts 298°
2026-04-23 11:49 17.60744 68.74592 33829 ft 462 kts 298°
2026-04-23 11:49 17.63784 68.68658 33827 ft 462 kts 298°
2026-04-23 11:50 17.66822 68.62722 33829 ft 462 kts 298°
2026-04-23 11:50 17.69861 68.56781 33832 ft 462 kts 298°
2026-04-23 11:51 17.72897 68.50839 33831 ft 462 kts 298°
2026-04-23 11:51 17.75930 68.44897 33833 ft 462 kts 298°
2026-04-23 11:52 17.78963 68.38949 33837 ft 462 kts 298°
2026-04-23 11:52 17.81995 68.32999 33835 ft 462 kts 298°
2026-04-23 11:53 17.85028 68.27041 33841 ft 463 kts 298°
2026-04-23 11:53 17.88056 68.21087 33841 ft 462 kts 298°
2026-04-23 11:54 17.91084 68.15128 33836 ft 462 kts 298°
2026-04-23 11:54 17.94108 68.09170 33834 ft 463 kts 298°
2026-04-23 11:55 17.97132 68.03206 33838 ft 463 kts 298°
2026-04-23 11:55 18.00159 67.97234 33839 ft 463 kts 298°
2026-04-23 11:56 18.03181 67.91265 33840 ft 463 kts 298°
2026-04-23 11:56 18.06184 67.85328 33841 ft 463 kts 298°
2026-04-23 11:57 18.09270 67.79393 33839 ft 463 kts 299°
2026-04-23 11:57 18.12378 67.73472 33839 ft 463 kts 299°
2026-04-23 11:58 18.15485 67.67544 33840 ft 463 kts 299°
2026-04-23 11:58 18.18589 67.61616 33840 ft 463 kts 299°
2026-04-23 11:59 18.21689 67.55688 33839 ft 463 kts 299°
2026-04-23 11:59 18.24788 67.49758 33842 ft 462 kts 299°
2026-04-23 12:00 18.27885 67.43826 33840 ft 462 kts 299°
2026-04-23 12:00 18.30978 67.37896 33845 ft 462 kts 299°
2026-04-23 12:01 18.34066 67.31970 33843 ft 462 kts 299°
2026-04-23 12:01 18.37153 67.26038 33843 ft 462 kts 299°
2026-04-23 12:02 18.40236 67.20111 33847 ft 462 kts 299°
2026-04-23 12:02 18.43320 67.14176 33843 ft 462 kts 299°
2026-04-23 12:03 18.46401 67.08241 33844 ft 461 kts 300°
2026-04-23 12:03 18.49476 67.02311 33841 ft 461 kts 300°
2026-04-23 12:04 18.52530 66.96416 33844 ft 461 kts 300°
2026-04-23 12:04 18.55601 66.90484 33842 ft 462 kts 300°
2026-04-23 12:05 18.58676 66.84538 33846 ft 462 kts 300°
2026-04-23 12:05 18.61745 66.78596 33842 ft 461 kts 300°
2026-04-23 12:06 18.64811 66.72655 33843 ft 461 kts 300°
2026-04-23 12:06 18.69405 66.63745 33841 ft 461 kts 300°
2026-04-23 12:07 18.72464 66.57803 33844 ft 461 kts 300°
2026-04-23 12:07 18.75518 66.51864 33844 ft 460 kts 300°
2026-04-23 12:08 18.78567 66.45931 33844 ft 460 kts 300°
2026-04-23 12:08 18.81611 66.40001 33845 ft 459 kts 300°
2026-04-23 12:09 18.84649 66.34078 33844 ft 459 kts 300°
2026-04-23 12:09 18.87686 66.28150 33849 ft 459 kts 300°
2026-04-23 12:10 18.90719 66.22224 33847 ft 458 kts 300°
2026-04-23 12:10 18.93747 66.16302 33849 ft 458 kts 300°
2026-04-23 12:11 18.96771 66.10382 33847 ft 458 kts 301°
2026-04-23 12:11 18.99793 66.04461 33850 ft 458 kts 301°
2026-04-23 12:12 19.02810 65.98544 33849 ft 457 kts 301°
2026-04-23 12:12 19.05822 65.92629 33852 ft 457 kts 301°
2026-04-23 12:13 19.08835 65.86707 33850 ft 457 kts 301°
2026-04-23 12:13 19.11843 65.80792 33853 ft 457 kts 301°
2026-04-23 12:14 19.14847 65.74876 33849 ft 456 kts 301°
2026-04-23 12:14 19.17844 65.68968 33850 ft 456 kts 301°
2026-04-23 12:15 19.20836 65.63064 33853 ft 456 kts 301°
2026-04-23 12:15 19.23810 65.57191 33855 ft 455 kts 301°
2026-04-23 12:16 19.26816 65.51248 33853 ft 455 kts 301°
2026-04-23 12:16 19.29777 65.45387 33856 ft 454 kts 301°
2026-04-23 12:17 19.32753 65.39492 33854 ft 454 kts 301°
2026-04-23 12:17 19.35726 65.33596 33854 ft 453 kts 301°
2026-04-23 12:18 19.38694 65.27706 33858 ft 453 kts 301°
2026-04-23 12:18 19.41655 65.21823 33856 ft 453 kts 301°
2026-04-23 12:19 19.44617 65.15933 33857 ft 452 kts 301°
2026-04-23 12:19 19.47572 65.10053 33856 ft 452 kts 301°
2026-04-23 12:20 19.50521 65.04176 33855 ft 451 kts 301°
2026-04-23 12:20 19.53494 64.98326 33854 ft 450 kts 302°
2026-04-23 12:21 19.56497 64.92506 33857 ft 449 kts 302°
2026-04-23 12:21 19.59487 64.86698 33856 ft 449 kts 302°
2026-04-23 12:22 19.62478 64.80884 33853 ft 448 kts 302°
2026-04-23 12:22 19.65459 64.75082 33856 ft 448 kts 302°
2026-04-23 12:23 19.68437 64.69281 33854 ft 447 kts 302°
2026-04-23 12:23 19.71408 64.63488 33857 ft 446 kts 302°
2026-04-23 12:24 19.74372 64.57702 33856 ft 446 kts 302°
2026-04-23 12:24 19.77330 64.51922 33856 ft 445 kts 302°
2026-04-23 12:25 19.80283 64.46147 33853 ft 445 kts 302°
2026-04-23 12:25 19.83231 64.40374 33852 ft 444 kts 302°
2026-04-23 12:26 19.86171 64.34613 33856 ft 444 kts 302°
2026-04-23 12:26 19.89106 64.28856 33857 ft 443 kts 302°
2026-04-23 12:27 19.92037 64.23099 33852 ft 443 kts 302°
2026-04-23 12:27 19.94948 64.17377 33849 ft 443 kts 302°
2026-04-23 12:28 19.97874 64.11619 33848 ft 443 kts 302°
2026-04-23 12:28 20.00800 64.05857 33847 ft 443 kts 302°
2026-04-23 12:29 20.03248 64.01031 33852 ft 443 kts 302°
2026-04-23 12:29 20.06644 63.94331 33851 ft 442 kts 302°
2026-04-23 12:30 20.09562 63.88564 33853 ft 443 kts 302°
2026-04-23 12:30 20.12481 63.82793 33851 ft 443 kts 302°
2026-04-23 12:31 20.14926 63.77952 33844 ft 443 kts 302°
2026-04-23 12:31 20.17845 63.72169 33851 ft 444 kts 302°
2026-04-23 12:32 20.20765 63.66377 33841 ft 444 kts 302°
2026-04-23 12:32 20.23686 63.60578 33845 ft 444 kts 302°
2026-04-23 12:33 20.26606 63.54774 33843 ft 445 kts 301°
2026-04-23 12:33 20.29527 63.48964 33844 ft 445 kts 301°
2026-04-23 12:34 20.32444 63.43154 33848 ft 445 kts 301°
2026-04-23 12:34 20.35363 63.37335 33839 ft 445 kts 301°
2026-04-23 12:35 20.38280 63.31514 33844 ft 445 kts 301°
2026-04-23 12:35 20.41178 63.25724 33843 ft 446 kts 301°
2026-04-23 12:36 20.44095 63.19892 33850 ft 446 kts 301°
2026-04-23 12:36 20.47008 63.14060 33844 ft 445 kts 301°
2026-04-23 12:37 20.49919 63.08228 33840 ft 445 kts 301°
2026-04-23 12:37 20.52825 63.02397 33847 ft 445 kts 301°
2026-04-23 12:38 20.55729 62.96565 33844 ft 445 kts 301°
2026-04-23 12:38 20.58630 62.90733 33843 ft 445 kts 301°
2026-04-23 12:39 20.61526 62.84905 33847 ft 444 kts 301°
2026-04-23 12:39 20.64420 62.79074 33849 ft 444 kts 301°
2026-04-23 12:40 20.67312 62.73243 33838 ft 444 kts 301°
2026-04-23 12:40 20.70197 62.67418 33847 ft 444 kts 301°
2026-04-23 12:41 20.73080 62.61592 33842 ft 444 kts 301°
2026-04-23 12:41 20.75963 62.55760 33836 ft 443 kts 301°
2026-04-23 12:42 20.78828 62.49958 33839 ft 438 kts 301°
2026-04-23 12:42 20.81646 62.44244 33838 ft 437 kts 301°
2026-04-23 12:43 20.84478 62.38497 33835 ft 437 kts 300°
2026-04-23 12:43 20.87303 62.32757 33837 ft 436 kts 301°
2026-04-23 12:44 20.90124 62.27019 33837 ft 436 kts 301°
2026-04-23 12:44 20.92942 62.21282 33836 ft 436 kts 300°
2026-04-23 12:45 20.95757 62.15544 33839 ft 435 kts 300°
2026-04-23 12:45 20.98567 62.09811 33837 ft 435 kts 300°
2026-04-23 12:46 21.01376 62.04075 33831 ft 435 kts 300°
2026-04-23 12:46 21.04181 61.98339 33835 ft 435 kts 300°
2026-04-23 12:47 21.06983 61.92606 33834 ft 434 kts 300°
2026-04-23 12:47 21.09781 61.86875 33833 ft 434 kts 300°
2026-04-23 12:48 21.12577 61.81142 33834 ft 434 kts 300°
2026-04-23 12:48 21.15369 61.75411 33833 ft 434 kts 300°
2026-04-23 12:49 21.18158 61.69682 33834 ft 434 kts 300°
2026-04-23 12:49 21.20995 61.63981 33833 ft 432 kts 305°
2026-04-23 12:50 21.24343 61.58644 33829 ft 431 kts 306°
2026-04-23 12:50 21.27711 61.53322 33827 ft 431 kts 306°
2026-04-23 12:51 21.31081 61.47999 33828 ft 431 kts 306°
2026-04-23 12:51 21.34429 61.42706 33828 ft 431 kts 306°
2026-04-23 12:52 21.37796 61.37378 33828 ft 431 kts 306°
2026-04-23 12:52 21.41160 61.32050 33830 ft 431 kts 306°
2026-04-23 12:53 21.44521 61.26722 33828 ft 431 kts 306°
2026-04-23 12:53 21.47881 61.21389 33827 ft 431 kts 306°
2026-04-23 12:54 21.51240 61.16054 33819 ft 431 kts 305°
2026-04-23 12:54 21.54600 61.10713 33827 ft 432 kts 305°
2026-04-23 12:55 21.57961 61.05363 33817 ft 432 kts 305°
2026-04-23 12:55 21.61324 61.00005 33820 ft 432 kts 305°
2026-04-23 12:56 21.64685 60.94645 33814 ft 432 kts 305°
2026-04-23 12:56 21.68043 60.89287 33815 ft 432 kts 305°
2026-04-23 12:57 21.71398 60.83926 33818 ft 432 kts 305°
2026-04-23 12:57 21.74755 60.78556 33817 ft 433 kts 304°
2026-04-23 12:58 21.78094 60.73211 33815 ft 434 kts 304°
2026-04-23 12:58 21.81458 60.67821 33812 ft 435 kts 304°
2026-04-23 12:59 21.84831 60.62411 33804 ft 436 kts 304°
2026-04-23 12:59 21.88206 60.56992 33803 ft 436 kts 304°
2026-04-23 13:00 21.91578 60.51572 33802 ft 436 kts 304°
2026-04-23 13:00 21.94949 60.46149 33809 ft 436 kts 304°
2026-04-23 13:01 21.98322 60.40718 33805 ft 437 kts 304°
2026-04-23 13:01 22.01704 60.35264 33800 ft 438 kts 304°
2026-04-23 13:02 22.05095 60.29793 33796 ft 440 kts 304°
2026-04-23 13:02 22.08490 60.24309 33804 ft 440 kts 304°
2026-04-23 13:03 22.11878 60.18831 33793 ft 439 kts 304°
2026-04-23 13:03 22.15258 60.13359 33794 ft 438 kts 304°
2026-04-23 13:04 22.18637 60.07885 33793 ft 438 kts 304°
2026-04-23 13:04 22.22013 60.02409 33784 ft 438 kts 303°
2026-04-23 13:05 22.25391 59.96925 33790 ft 439 kts 303°
2026-04-23 13:05 22.28770 59.91433 33787 ft 439 kts 303°
2026-04-23 13:06 22.33828 59.83201 33782 ft 438 kts 303°
2026-04-23 13:07 22.37190 59.77724 33782 ft 437 kts 304°
2026-04-23 13:07 22.40519 59.72294 33781 ft 436 kts 303°
2026-04-23 13:08 22.43864 59.66832 33778 ft 436 kts 304°
2026-04-23 13:08 22.47231 59.61330 33786 ft 435 kts 304°
2026-04-23 13:09 22.50547 59.55907 33793 ft 435 kts 304°
2026-04-23 13:09 22.53878 59.50453 33799 ft 434 kts 304°
2026-04-23 13:10 22.57289 59.45065 33804 ft 433 kts 304°
2026-04-23 13:10 22.60684 59.39705 33816 ft 431 kts 304°
2026-04-23 13:11 22.64061 59.34364 33832 ft 429 kts 304°
2026-04-23 13:11 22.67427 59.29037 33838 ft 428 kts 304°
2026-04-23 13:12 22.70786 59.23714 33857 ft 429 kts 304°
2026-04-23 13:12 22.74145 59.18386 33842 ft 428 kts 304°
2026-04-23 13:13 22.77503 59.13056 33850 ft 429 kts 304°
2026-04-23 13:13 22.80862 59.07716 33848 ft 429 kts 304°
2026-04-23 13:14 22.84215 59.02381 33842 ft 428 kts 303°
2026-04-23 13:14 22.87569 58.97041 33840 ft 428 kts 303°
2026-04-23 13:15 22.90914 58.91709 33856 ft 427 kts 303°
2026-04-23 13:15 22.93683 58.87276 33864 ft 427 kts 303°
2026-04-23 13:16 22.97544 58.81021 33843 ft 427 kts 303°
2026-04-23 13:16 23.00845 58.75673 33843 ft 426 kts 303°
2026-04-23 13:17 23.04147 58.70319 33844 ft 426 kts 303°
2026-04-23 13:17 23.07421 58.65002 33848 ft 427 kts 303°
2026-04-23 13:18 23.10723 58.59637 33850 ft 426 kts 303°
2026-04-23 13:18 23.14021 58.54272 33837 ft 427 kts 303°
2026-04-23 13:19 23.17315 58.48909 33858 ft 427 kts 303°
2026-04-23 13:19 23.20606 58.43543 33855 ft 427 kts 303°
2026-04-23 13:20 23.23339 58.39083 33857 ft 426 kts 303°
2026-04-23 13:20 23.26624 58.33718 33858 ft 426 kts 303°
2026-04-23 13:21 23.29899 58.28362 33840 ft 425 kts 303°
2026-04-23 13:21 23.33168 58.23013 33832 ft 424 kts 303°
2026-04-23 13:22 23.36432 58.17665 33829 ft 423 kts 303°
2026-04-23 13:22 23.39704 58.12344 33828 ft 422 kts 304°
2026-04-23 13:23 23.43120 58.07151 33824 ft 422 kts 304°
2026-04-23 13:23 23.46521 58.01943 33824 ft 421 kts 304°
2026-04-23 13:24 23.49912 57.96741 33832 ft 421 kts 304°
2026-04-23 13:24 23.53302 57.91536 33832 ft 421 kts 304°
2026-04-23 13:25 23.56692 57.86324 33825 ft 421 kts 304°
2026-04-23 13:25 23.60186 57.81196 33826 ft 421 kts 307°
2026-04-23 13:26 23.63791 57.76167 33819 ft 421 kts 306°
2026-04-23 13:26 23.67248 57.71315 33815 ft 421 kts 307°
2026-04-23 13:27 23.70837 57.66269 33813 ft 421 kts 307°
2026-04-23 13:27 23.74426 57.61220 33812 ft 421 kts 307°
2026-04-23 13:28 23.78020 57.56169 33814 ft 421 kts 307°
2026-04-23 13:28 23.81619 57.51119 33811 ft 421 kts 307°
2026-04-23 13:29 23.85212 57.46072 33808 ft 421 kts 307°
2026-04-23 13:29 23.88802 57.41026 33812 ft 421 kts 306°
2026-04-23 13:30 23.92389 57.35976 33809 ft 420 kts 306°
2026-04-23 13:30 23.95952 57.30957 33815 ft 421 kts 306°
2026-04-23 13:31 23.99539 57.25897 33734 ft 423 kts 306°
2026-04-23 13:31 24.01344 57.23350 33483 ft 424 kts 306°
2026-04-23 13:31 24.03151 57.20799 33247 ft 425 kts 306°
2026-04-23 13:31 24.04962 57.18239 33014 ft 426 kts 306°
2026-04-23 13:32 24.06780 57.15670 32783 ft 427 kts 306°
2026-04-23 13:32 24.08620 57.13067 32542 ft 427 kts 306°
2026-04-23 13:32 24.10434 57.10501 32314 ft 426 kts 306°
2026-04-23 13:32 24.12244 57.07939 32085 ft 425 kts 306°
2026-04-23 13:33 24.14026 57.05414 31862 ft 424 kts 306°
2026-04-23 13:33 24.15811 57.02884 31485 ft 417 kts 306°
2026-04-23 13:33 24.17576 57.00382 30778 ft 416 kts 306°
2026-04-23 13:33 24.19345 56.97872 30109 ft 416 kts 306°
2026-04-23 13:34 24.21109 56.95369 29512 ft 413 kts 306°
2026-04-23 13:34 24.22859 56.92881 28893 ft 411 kts 306°
2026-04-23 13:34 24.24589 56.90421 28408 ft 405 kts 306°
2026-04-23 13:34 24.26295 56.87994 27935 ft 399 kts 306°
2026-04-23 13:35 24.27981 56.85595 27435 ft 396 kts 306°
2026-04-23 13:35 24.29641 56.83232 26936 ft 392 kts 305°
2026-04-23 13:35 24.31328 56.80828 26425 ft 395 kts 305°
2026-04-23 13:35 24.33005 56.78438 25923 ft 395 kts 305°
2026-04-23 13:36 24.34678 56.76053 25436 ft 394 kts 305°
2026-04-23 13:36 24.36345 56.73675 24939 ft 392 kts 305°
2026-04-23 13:36 24.38005 56.71306 24452 ft 391 kts 305°
2026-04-23 13:36 24.39657 56.68948 23953 ft 389 kts 305°
2026-04-23 13:37 24.41304 56.66596 23463 ft 388 kts 305°
2026-04-23 13:37 24.42944 56.64253 22894 ft 386 kts 305°
2026-04-23 13:37 24.44749 56.62065 22282 ft 387 kts 311°
2026-04-23 13:37 24.46604 56.59943 21817 ft 382 kts 310°
2026-04-23 13:38 24.48422 56.57835 21371 ft 378 kts 310°
2026-04-23 13:38 24.50210 56.55745 20900 ft 374 kts 310°
2026-04-23 13:38 24.51979 56.53667 20444 ft 371 kts 310°
2026-04-23 13:38 24.53737 56.51601 19986 ft 369 kts 310°
2026-04-23 13:39 24.55485 56.49543 19529 ft 368 kts 310°
2026-04-23 13:39 24.57224 56.47494 19076 ft 365 kts 310°
2026-04-23 13:39 24.58950 56.45461 18622 ft 363 kts 310°
2026-04-23 13:39 24.60641 56.43466 18185 ft 361 kts 310°
2026-04-23 13:40 24.62351 56.41449 17677 ft 359 kts 309°
2026-04-23 13:40 24.64046 56.39449 17198 ft 356 kts 310°
2026-04-23 13:40 24.65730 56.37461 16740 ft 354 kts 310°
2026-04-23 13:40 24.67404 56.35484 16299 ft 354 kts 310°
2026-04-23 13:41 24.68985 56.33419 15995 ft 351 kts 300°
2026-04-23 13:41 24.70247 56.31117 15834 ft 352 kts 299°
2026-04-23 13:41 24.71554 56.28836 15678 ft 352 kts 300°
2026-04-23 13:41 24.72873 56.26574 15358 ft 351 kts 300°
2026-04-23 13:42 24.74202 56.24319 14940 ft 351 kts 300°
2026-04-23 13:42 24.75539 56.22065 14492 ft 352 kts 300°
2026-04-23 13:42 24.76878 56.19813 14033 ft 352 kts 300°
2026-04-23 13:42 24.78220 56.17560 13605 ft 351 kts 300°
2026-04-23 13:43 24.79555 56.15320 13193 ft 349 kts 300°
2026-04-23 13:43 24.80883 56.13088 12737 ft 349 kts 300°
2026-04-23 13:43 24.82209 56.10859 12278 ft 348 kts 300°
2026-04-23 13:43 24.83528 56.08641 11806 ft 346 kts 300°
2026-04-23 13:44 24.84847 56.06422 11344 ft 344 kts 300°
2026-04-23 13:44 24.86151 56.04228 10953 ft 340 kts 300°
2026-04-23 13:44 24.87426 56.02080 10762 ft 330 kts 300°
2026-04-23 13:44 24.88659 56.00003 10601 ft 319 kts 300°
2026-04-23 13:45 24.89455 55.98662 10470 ft 313 kts 300°
2026-04-23 13:45 24.91017 55.96029 10228 ft 301 kts 300°
2026-04-23 13:45 24.92130 55.94151 10022 ft 285 kts 300°
2026-04-23 13:45 24.93195 55.92355 9679 ft 277 kts 300°
2026-04-23 13:46 24.94249 55.90575 9283 ft 280 kts 300°
2026-04-23 13:46 24.95323 55.88760 8879 ft 284 kts 300°
2026-04-23 13:46 24.96405 55.86934 8520 ft 285 kts 300°
2026-04-23 13:46 24.97484 55.85111 8156 ft 284 kts 300°
2026-04-23 13:47 24.98560 55.83292 7804 ft 282 kts 300°
2026-04-23 13:47 24.99628 55.81485 7452 ft 281 kts 300°
2026-04-23 13:47 25.00679 55.79707 7101 ft 272 kts 300°
2026-04-23 13:47 25.01692 55.77995 6815 ft 261 kts 300°
2026-04-23 13:48 25.02667 55.76342 6482 ft 253 kts 300°
2026-04-23 13:48 25.03580 55.74797 6155 ft 246 kts 300°
2026-04-23 13:48 25.04498 55.73241 5837 ft 239 kts 299°
2026-04-23 13:48 25.05381 55.71744 5532 ft 233 kts 300°
2026-04-23 13:49 25.06252 55.70270 5231 ft 226 kts 300°
2026-04-23 13:49 25.07107 55.68819 4941 ft 219 kts 300°
2026-04-23 13:49 25.07937 55.67439 4708 ft 211 kts 302°
2026-04-23 13:49 25.08773 55.66135 4604 ft 216 kts 301°
2026-04-23 13:50 25.09607 55.64724 4459 ft 223 kts 299°
2026-04-23 13:50 25.10428 55.63259 4304 ft 225 kts 299°
2026-04-23 13:50 25.11242 55.61791 4140 ft 224 kts 298°
2026-04-23 13:50 25.12052 55.60331 4001 ft 223 kts 298°
2026-04-23 13:51 25.12854 55.58884 3775 ft 219 kts 298°
2026-04-23 13:51 25.13644 55.57459 3536 ft 216 kts 299°
2026-04-23 13:51 25.14432 55.56036 3281 ft 212 kts 299°
2026-04-23 13:51 25.15194 55.54660 3042 ft 207 kts 299°
2026-04-23 13:52 25.15933 55.53326 2789 ft 201 kts 298°
2026-04-23 13:52 25.16645 55.52037 2556 ft 196 kts 300°
2026-04-23 13:52 25.17332 55.50795 2324 ft 177 kts 301°
2026-04-23 13:52 25.17941 55.49696 2116 ft 163 kts 301°
2026-04-23 13:53 25.18527 55.48635 1902 ft 162 kts 302°
2026-04-23 13:53 25.19114 55.47574 1682 ft 163 kts 305°
2026-04-23 13:53 25.19711 55.46499 1509 ft 166 kts 305°
2026-04-23 13:53 25.20315 55.45406 1293 ft 165 kts 304°
2026-04-23 13:54 25.20908 55.44332 1070 ft 163 kts 305°
2026-04-23 13:54 25.21494 55.43272 877 ft 159 kts 305°
2026-04-23 13:54 25.22058 55.42250 677 ft 154 kts 304°
2026-04-23 13:54 25.22588 55.41245 472 ft 150 kts 304°
2026-04-23 13:55 25.23151 55.40263 261 ft 152 kts 304°
2026-04-23 13:55 25.23704 55.39270 70 ft 149 kts 304°
2026-04-23 13:55 25.24214 55.38369 33 ft 115 kts 302°
2026-04-23 13:55 25.24505 55.37846 32 ft 59 kts 302°
2026-04-23 13:56 25.24725 55.37441 30 ft 63 kts 297°
2026-04-23 13:56 25.24789 55.37116 29 ft 39 kts 274°
2026-04-23 13:56 25.24814 55.36927 28 ft 24 kts 302°
2026-04-23 13:56 25.24856 55.36827 27 ft 8 kts 283°
2026-04-23 13:57 25.24870 55.36755 26 ft 8 kts 282°
2026-04-23 13:57 25.24888 55.36683 25 ft 10 kts 290°
2026-04-23 13:57 25.24926 55.36606 26 ft 13 kts 300°
2026-04-23 13:57 25.24972 55.36525 25 ft 12 kts 303°
2026-04-23 13:58 25.25021 55.36437 25 ft 14 kts 301°
2026-04-23 13:58 25.25078 55.36336 26 ft 17 kts 303°
2026-04-23 13:58 25.25143 55.36221 25 ft 19 kts 302°
2026-04-23 13:58 25.25216 55.36090 26 ft 21 kts 301°
2026-04-23 13:59 25.25290 55.35961 28 ft 21 kts 303°
2026-04-23 13:59 25.25369 55.35818 24 ft 23 kts 301°
2026-04-23 13:59 25.25456 55.35664 24 ft 23 kts 303°
2026-04-23 13:59 25.25535 55.35521 25 ft 23 kts 302°
2026-04-23 14:00 25.25584 55.35437 25 ft 14 kts 302°
2026-04-23 14:00 25.25651 55.35315 26 ft 15 kts 302°
2026-04-23 14:00 25.25710 55.35211 24 ft 16 kts 302°
2026-04-23 14:00 25.25771 55.35101 24 ft 18 kts 299°
2026-04-23 14:01 25.25817 55.35038 24 ft 4 kts 349°
2026-04-23 14:01 25.25837 55.35045 24 ft 4 kts 27°
2026-04-23 14:01 25.25878 55.35075 24 ft 10 kts 34°
2026-04-23 14:01 25.25942 55.35118 26 ft 12 kts 30°
2026-04-23 14:02 25.26020 55.35168 24 ft 14 kts 30°
2026-04-23 14:02 25.26109 55.35229 25 ft 16 kts 32°
2026-04-23 14:02 25.26169 55.35269 27 ft 8 kts 31°
2026-04-23 14:02 25.26193 55.35286 28 ft 0 kts 31°
2026-04-23 14:03 25.26212 55.35299 29 ft 11 kts 31°
2026-04-23 14:03 25.26321 55.35372 32 ft 22 kts 31°
2026-04-23 14:03 25.26446 55.35455 28 ft 19 kts 31°
2026-04-23 14:04 25.26506 55.35527 24 ft 7 kts 99°
2026-04-23 14:04 25.26479 55.35582 25 ft 9 kts 121°
2026-04-23 14:04 25.26445 55.35647 28 ft 2 kts 105°
2026-04-23 14:04 25.26451 55.35666 24 ft 4 kts 53°
2026-04-23 14:05 25.26477 55.35682 24 ft 5 kts 29°
2026-04-23 14:05 25.26497 55.35695 27 ft 5 kts 30°
2026-04-23 14:05 25.26506 55.35701 25 ft 2 kts 30°
2026-04-23 14:05 25.26512 55.35705 26 ft 0 kts 31°